Aérodrome :
LOGIN :

S'inscrire | Disclaimer

   EN    FR    IT 

 










Légende :    VFR   VFR Marginal   IFR   IFR Intensif   IFR Très Intensif
Visi : 
Plafond : 
>= 8 km
>= 3000ft
5 à 8 km
1000 à 3000 ft
1500m à 5 km
500 à 1000 ft
800 à 1500m
200 à 500 ft
< 800m
< 200 ft
Symboles :   Orages  Brouillard  Fortes neiges  Fortes précipitations  Vent > 20 kt
SIGMETs :   Divers  Orages  Givrage  Turbulence  Onde Orograph.  Cendres Volcan.







- Altitude de l'aérodrome : 17 ft
- Code IATA : MPL
- Voir les cartes d'approche


LFMT - Montpellier Méditerranée

DERNIER METAR :
  • 190400Z AUTO 33004KT CAVOK 03/M02 Q1020 NOSIG

METARs EXPIRÉS :
  • 190330Z AUTO 31006KT CAVOK 04/M02 Q1020 NOSIG
  • 190300Z AUTO 32005KT CAVOK 04/M02 Q1020 NOSIG
  • 190230Z AUTO 32005KT CAVOK 04/M02 Q1020 NOSIG
  • 190200Z AUTO 30003KT CAVOK 03/M02 Q1020 NOSIG

TAF TAF LFMT
Valide du 19 à 03h jusqu'au 20 à 03h UTC


190200Z 1903/2003 VRB05KT CAVOK
TEMPO 1916/1919 36010KT
ATIS : +33 4 67 13 11 70
Pas de NOTAMs connus pour ce terrain.



MET'MAP, la Météo Aéronautique d'un coup d'oeil ! - Copyright ORBIFLY Décembre 2007 - Disclaimer

ORBIFLY MET'MAP TEAM :

Programmation & Développement : Alexandra Zaïnal
Conception & Développement : Baudouin d'Aumeries
Co-Programmation & Développement : Marc-Olivier Méhu
Soutien technique & logistique : Manuel Goepfert

Contact : metmap@orbifly.com




SOURCES & CREDITS :

   NOAA